Torna al catalogo

THORAD AGENA D DEB

AttivoLEO
NORAD 44564·DEBRIS·🇺🇸 United States

Lanciato Apr 8, 1970 da Vandenberg Space Force Base

Loading…

Prossimi Passaggi (prossime 24 ore)

TLE

AggiornatoSource: Space-Track

Epoca: Sep 14, 2026, 11:31 UTC

1 44564U 70025TM  26257.48015876  .00002486  00000-0  11409-2 0  9995
2 44564 100.0006 263.8734 0068161 273.0856 242.9348 14.21168671657960

Traccia THORAD AGENA D DEB in tempo reale con AllMySat

Download on the App Store